{"data":{"norad_id":62631,"intl_designator":"2025-009Y","name":"PELICAN-2","alt_names":[],"object_type":"PAYLOAD","status":"ACTIVE","operator":null,"country":"US","launch_date":"2025-01-14","launch_site_code":"AFWTR","launch_vehicle":null,"mission":null,"orbit_class":"UNKNOWN","rcs_meters":null,"size_class":null,"mass_kg":null,"dimensions":null,"purposes":["earth_obs"],"wikipedia_slug":null,"has_3d_model":false,"image_url":null,"decayed_at":null,"tle_current":{"epoch":"2026-09-18T12:10:17.315904Z","epoch_age_seconds":186707,"freshness":"STALE","line1":"1 62631U 25009Y   26261.50714486  .00004272  00000+0  10664-3 0  9990","line2":"2 62631  97.2027 351.1143 0000728  50.3425 309.7886 15.40714450 93926","mean_motion":15.4071445,"eccentricity":7.28e-5,"inclination_deg":97.2027,"raan_deg":351.1143,"arg_perigee_deg":50.3425,"mean_anomaly_deg":309.7886,"bstar":0.00010664,"rev_number":9392,"period_min":93.463133288586,"perigee_km":443.50284019911,"apogee_km":444.49614327231,"semimajor_km":6822.1364917357,"source":"CELESTRAK","updated_at":"2026-09-20T09:00:34.718315Z"}}}